THAICOM 1

Satellite information

Favourite Embed

Satellite Type and Status

PAYLOADIN ORBIT

Key statistics

Satellite THAICOM 1 at a glance.

Uptime

11525

Days in orbit

Revolutions

≈ 1.0

Per day

Orbit

OTHER

Other

Inclination

11.3

Latest

Satellite identification and parameters

Extended collection of information and parameters for THAICOM 1.

Object identification

Identified? True

Debris? False

Object name: THAICOM 1

International designator: 1993-078B

Object number (NORAD): 22931

Object ID (CCSDS): 22931

Country: THAILAND (THAI)

Current information (Y/N): Y

RCS size: MEDIUM

Orbital parameters

Period: 1451.861 minutes

Inclination: 11.318 deg

SMA: 42472.736 km

Apoapsis: 36115.553 km

Periapsis: 36073.65 km

RAAN: 37.4563 deg

Eccentricy: 0.0004933

Argument of periapsis: 178.5338 deg

Mean anomaly: 5.2335 deg

Mean motion: 0.99183036 rev/day

Mean motion (dot): -0.00000203 rev/day2

B* drag term: 0.0 1/REarth

Two-line elements (TLE)

Creation date: July 7, 2025, 6:34 p.m.

Reference frame: TEME

Reference center: EARTH

Epoch: July 6, 2025, 11:32 p.m. UTC

TLE line 0: 0 THAICOM 1

TLE line 1: 1 22931U 93078B 25187.98108196 -.00000203 00000-0 00000-0 0 9995

TLE line 2: 2 22931 11.3180 37.4563 0004933 178.5338 5.2335 0.99183036 42749

Live tracking on map

Real-time ground track for satellite THAICOM 1.

In-orbit conjunctions

There are no conjunctions computed for THAICOM 1, at the moment. Check back to stay up to date, as we update our databases every day.

Go to all conjunctions

Associated space launch

DirecTV 1 is a high-powered satellites built by Hughes Space and Communications Company (HSC) which began bringing true direct broadcast satellite (DBS) service to homes throughout North America in 1994. Thaicom 1 is a Thai communications satellite.

THAICOM 1 was lifted into orbit during the mission ‘Ariane 44L | DirecTV 1 & Thaicom 1’, on board a Ariane 44L space rocket.

The launch took place on Dec. 18, 1993, 1:27 a.m. from Ariane Launch Area 2.

For more information about the launch, click the button.

Launch to space Ariane 44L | DirecTV 1 & Thaicom 1
Ariane 44L | DirecTV 1 & Thaicom 1

Agency: N/A

Status: Launch Successful

Launch date: Dec. 18, 1993, 1:27 a.m. UTC

Rocket: Ariane 44L

Launch pad: Ariane Launch Area 2

Location: Guiana Space Centre, French Guiana

...

Latest news about this satellite

There are no fresh news available about this satellite. Check back as we update our databases every day.


Newsletter sign-up

Weekly statistics, charts and insights to help you stay on top of the space industry.